Location: Strawberry
(45.6646°N, 111.9596°W)
Time: 13:16:15
(UTC+00:00)

Transit 4A - Pass Details

Date: 07 October 2022
Orbit: 871 x 973 km, 66.8° (Epoch: 26 November)

Event Time Altitude Azimuth Distance (km) Brightness Sun altitude
Rises 11:14:04 0° 330° (NNW) 3,510 10.8 -24.9°
Reaches altitude 10° 11:17:19 10° 347° (NNW) 2,553 10.2 -24.4°
Maximum altitude 11:21:34 20° 34° (NE) 1,913 10.1 -23.7°
Drops below altitude 10° 11:25:48 10° 81° (E) 2,523 11.3 -23.0°
Sets 11:28:58 0° 98° (E) 3,457 12.0 -22.5°
